User: anonymous   Login
Location: Grand Rapids
(42.9630°N, 85.6680°W)
Time: 02:35:20
(UTC-04:00)
Language:

Transit 4A - Orbit

View from above orbital plane
View from above orbital plane
View from above satellite
View from above satellite

Ground track
Ground track

The orbit data is extracted from the following two-line orbital elements,

1 00116U 61015A   24150.77746106  .00000084  00000-0  12290-3 0  9990
2 00116  66.8102 281.7831 0068630  76.5662 284.3055 13.92045578192528
Epoch (UTC): 29 May 2024 18:39:32
Eccentricity: 0.0068630
inclination: 66.8102°
perigee height: 871 km
apogee height: 971 km
right ascension of ascending node: 281.7831°
argument of perigee: 76.5662°
revolutions per day: 13.92045578
mean anomaly at epoch: 284.3055°
orbit number at epoch: 19252

The dashed part of the orbit path shows where the satellite is in the earth's shadow,  

DLR